Tracking 19628 objects as of 26-May-2019
HD Live streaming from Space Station
objects crossing your sky now
Watch Starlink satellites crossing your sky!

ANIK E2

Track ANIK E2 now!
ANIK E2 is classified as:


NORAD ID: 21222
Int'l Code: 1991-026A
Perigee: 36,068.6 km
Apogee: 36,164.5 km
Inclination: 12.0 °
Period: 1,452.6 minutes
Semi major axis: 42487 km
RCS: 12.1056 m2 (large)
Launch date: April 4, 1991
Source: Canada (CA)
Launch site: FRENCH GUIANA (FRGUI)

Inclined orbit; Anik is Inuit for "Little Brother"; 24 C-band, 16 Ku-band transponders.
aabbcc
Your satellite tracking list
Your tracking list is empty




NASA's NSSDC Master Catalog

Two Line Element Set (TLE):
1 21222U 91026A   19145.57598078 -.00000280  00000-0  00000+0 0  9996
2 21222  12.0122  30.7732 0011286 339.7846 207.7026  0.99131053 91543
Source of the keplerian elements: AFSPC